Location: Bailleul
(50.3375°N, 2.8513°E)
Time: 14:16:03
(UTC+00:00)

BREEZE-M DEB (TANK) - Visible Passes

Search period start: 22 October 2021 00:00
Search period end: 01 November 2021 00:00
Orbit: 316 x 12029 km, 49.7° (Epoch: 21 October)

Date Brightness Start Highest point End Pass type
(mag) Time Alt. Az. Time Alt. Az. Time Alt. Az.
22 Oct 7.3 01:06:35 10° S 02:01:11 40° SE 02:17:09 10° ENE visible
22 Oct 5.3 05:37:23 10° WSW 06:11:43 83° SSE 06:18:58 10° E visible
23 Oct 7.6 00:24:52 10° S 01:17:02 34° SE 01:34:24 10° ENE visible
23 Oct 5.6 04:47:42 10° WSW 05:28:43 78° SSE 05:37:05 10° ENE visible
23 Oct 7.7 23:45:27 10° SSE 00:32:55 28° SE 00:51:10 10° ENE visible
24 Oct 5.9 03:57:58 10° SW 04:45:31 72° SSE 04:55:09 10° ENE visible
24 Oct 7.8 23:08:48 10° SSE 23:48:59 22° ESE 00:07:11 10° E visible
25 Oct 6.2 03:08:44 10° SW 04:02:04 66° SSE 04:13:09 10° ENE visible
25 Oct 7.9 22:35:55 10° SE 23:05:21 17° ESE 23:21:42 10° E visible
26 Oct 6.5 02:20:30 10° SSW 03:18:22 60° SSE 03:31:03 10° ENE visible
26 Oct 8.1 22:10:36 10° ESE 22:22:09 11° ESE 22:31:06 10° E visible
27 Oct 6.8 01:33:39 10° SSW 02:34:24 54° SE 02:48:51 10° ENE visible
28 Oct 7.1 00:48:23 10° SSW 01:50:13 48° SE 02:06:28 10° ENE visible
28 Oct 5.2 05:26:54 10° WSW 06:00:47 87° S 06:07:55 10° E visible
29 Oct 7.4 00:04:54 10° S 01:05:52 42° SE 01:23:52 10° ENE visible
29 Oct 5.5 04:36:47 10° WSW 05:17:43 84° SSE 05:25:58 10° E visible
29 Oct 7.6 23:23:26 10° S 00:21:29 36° SE 00:40:59 10° ENE visible
30 Oct 5.8 03:59:22 19° WSW 04:34:26 79° SSE 04:43:58 10° ENE visible
30 Oct 7.7 22:44:16 10° SSE 23:37:12 30° ESE 23:57:39 10° ENE visible
31 Oct 6.1 03:21:17 27° SW 03:50:55 74° SSE 04:01:54 10° ENE visible
31 Oct 7.8 22:49:12 24° ESE 22:53:09 24° ESE 23:13:35 10° ENE visible
